Погода в Орозеи

Италия     40°22′43″N   9°41′50″E
темп.,
°C
ветер,
м/с
пор.,
м/с
влажн.,
%
обл.,
%
осадки,
мм/ч
давл.,
гПа
погр.,
м
15 августа, пн
пн1523:00+24ююз34800 0.0 1009202
02:00+25юз11690 0.0 100897
05:00+24зсз11623 0.0 100857
08:00+26сз115746 0.0 1008113
11:00+29ю3356100 0.0 1009626
14:00+31ю444481 0.4 1007669
17:00+32ю454211 0.0 10061109
20:00+30зюз234597 0.0 100561
16 августа, вт
вт1623:00+26сз126136 0.0 100833
02:00+25зсз33740 0.0 100983
05:00+24зсз22780 0.1 100865
08:00+27з23700 0.3 1009356
11:00+30юв34542 0.0 10101200
14:00+30юв5459100 0.1 1011834
17:00+30юв435913 0.0 1011893
20:00+27юв22740 0.0 1011160
17 августа, ср
ср1723:00+25юз118047 0.0 1012103
02:00+25юз12775 0.0 1011125
05:00+24зсз226478 0.0 101143
08:00+26ссз225781 0.0 1012134
11:00+32юв124690 0.0 1011477
14:00+31вюв335714 0.0 1012738
17:00+30вюв456327 0.0 1010778
20:00+28в338128 0.0 1012289
18 августа, чт
чт1823:00+26юв249193 0.0 1010246
02:00+26ю23885 0.0 1010172
05:00+25з2288100 0.0 1009103
08:00+26ю128087 0.0 1007206
11:00+32св34497 0.0 1009873
14:00+32в54544 0.0 1009781
17:00+32в225117 0.0 1007758
20:00+29всв136394 0.1 1007110
19 августа, пт
пт1923:00+27з2268100 0.0 100866
02:00+25зсз48738 0.0 1009500
05:00+22з387521 0.0 1010629
08:00+25з411610 0.0 10111274
11:00+29зсз68410 0.0 10121583
14:00+32з69320 0.0 10111659
17:00+30зсз710373 0.0 10111454
20:00+26зсз511530 0.0 10121606